Weather in To'da

Uzbekistan     40°22′22″N   71°18′04″E
temp.,
°C
wind,
m/s
gust,
m/s
humid.,
%
clouds,
%
prec.,
mm/h
press.,
hPa
HPBL,
m
20 april, tue
tue2023:00+17ese113497 0.0 101211
02:00+17s1134100 0.0 101111
05:00+16sw2229100 0.0 101114
08:00+19w2425100 0.0 1013544
11:00+21wnw6527100 0.0 10122207
14:00+21w9927100 0.0 10112025
17:00+21ssw582974 0.1 10091427
20:00+20w3433100 0.0 1009152
21 april, wed
wed2123:00+17w5943100 0.1 1010343
02:00+16w4852100 0.3 1010264
05:00+14wsw6106298 0.7 1011857
08:00+13wsw91569100 2.3 10141373
11:00+13wsw91562100 4.7 10151542
14:00+13sw9135784 0.3 1015995
17:00+14sw10145166 0.3 10161364
20:00+12sw914580 0.0 1018745
22 april, thu
thu2223:00+12sw914561 0.0 1018583
02:00+10wsw34620 0.0 102065
05:00+9w337041 0.1 102246
08:00+11wnw34516 0.0 1024708
11:00+15nnw33435 0.0 10231550
14:00+18nnw23280 0.0 10232133
17:00+19nw34200 0.0 10222118
20:00+15nw11260 0.0 102417
23 april, fri
fri2323:00+13ssw11340 0.0 102411
02:00+12ese12340 0.0 102210
05:00+10sse11390 0.0 102310
08:00+14ne22330 0.0 1024382
11:00+18ne42285 0.0 10231362
14:00+21nne23171 0.0 10211978
17:00+22n331695 0.0 10191774
20:00+18e332180 0.0 102040
24 april, sat
sat2423:00+15e11295 0.0 102011
02:00+13nnw11315 0.0 101911
05:00+11nw11385 0.0 101910
08:00+16ene11287 0.0 1020209
11:00+20ne4422100 0.0 10191061
14:00+23ne211678 0.0 10171575
17:00+24ne2113100 0.0 10161403
20:00+19ene2219100 0.0 101712